Regional Weather Roundup
Issued by NWS

Home | Current Version | Previous Version | Graphics & Text | Print | Product List | Glossary On
Versions: 1 2 3 4 5 6 7 8 9 10 11 12 13 14 15 16 17 18 19 20 21 22 23 24 25 26 27 28 29 30 31 32 33 34 35 36 37 38 39 40 41 42 43 44 45 46 47 48 49 50
512
ASUS44 KLIX 300510
RWRLA
LOUISIANA WEATHER ROUNDUP
NATIONAL WEATHER SERVICE NEW ORLEANS LA
1200 AM CDT THU OCT 30 2014

NOTE: "FAIR" INDICATES FEW OR NO CLOUDS BELOW 12,000 FEET WITH NO
      SIGNIFICANT WEATHER AND/OR OBSTRUCTIONS TO VISIBILITY.
      SKY/WX - SKY CONDITION AND SIGNIFICANT WEATHER.
      TMP - AIR TEMPERATURE.    DP   - DEWPOINT TEMPERATURE.
      RH  - RELATIVE HUMIDITY.  PRES - PRESSURE.
      HX  - HEAT INDEX.         WCI  - WIND CHILL INDEX.

*  THESE STATIONS ARE NOT NWS OR FAA STATIONS AND ARE NOT UNDER
   NWS QUALITY CONTROL.

LAZ040-048-061>063-065-066-069-300600-
SOUTHEAST LOUISIANA

CITY           SKY/WX    TMP DP  RH WIND       PRES   REMARKS
N.O. AUDUBON     N/A     70  64  82 MISG        N/A
N.O. INTL ARPT PTCLDY    70  60  70 N15       30.07S
N.O. LAKEFRONT CLEAR     71  61  70 N20       30.07F
N.O. DOWNTOWN* FAIR      70  59  68 N10       30.07S
SLIDELL        PTCLDY    65  53  65 N8        30.07S
BATON ROUGE    CLEAR     61  53  75 NE3       30.10F
BOOTHVILLE     MOCLDY    73  69  87 NE9       30.04S
BELLE CHASSE   PTCLDY    70  60  70 NE8       30.05F
BOGALUSA*        N/A     58  52  80 N7        30.11S
NEW ROADS*     FAIR      58  52  81 CALM      30.11S
GONZALES*      FAIR      65  57  75 N3        30.08S
HAMMOND*       NOT AVBL
HOUMA*         CLEAR     66  64  92 N6        30.06S
PORT FOURCHON* CLOUDY    73  68  83 N12G17    30.08S

$$

LAZ041-044-053-054-300600-
SOUTHWEST LOUISIANA

CITY           SKY/WX    TMP DP  RH WIND       PRES   REMARKS
LAKE CHARLES   CLEAR     61  55  81 NE7       30.12S
LAFAYETTE      CLEAR     62  54  74 N7        30.11S
PATTERSON      CLEAR     66  63  88 N6        30.10S
SALT POINT       N/A     67  64  90 N5        30.07S
NEW IBERIA     MOCLDY    65  56  72 N10       30.10S
CHENAULT AIRPK CLEAR     60  55  84 N3        30.12S

$$

LAZ027-028-300600-
CENTRAL LOUISIANA

CITY           SKY/WX    TMP DP  RH WIND       PRES   REMARKS
FORT POLK      CLEAR     57  49  73 NE6       30.13S
ALEXANDRIA INT CLEAR     48  47  96 NW3       30.12F
ALEXANDRIA     CLEAR     50  47  89 CALM      30.14S

$$

LAZ001-002-300600-
NORTHWEST LOUISIANA

CITY           SKY/WX    TMP DP  RH WIND       PRES   REMARKS
SHREVEPORT     CLEAR     52  48  86 CALM      30.15S
BARKSDALE AFB  CLEAR     50  49  95 CALM      30.15S
DTN SHREVEPORT CLEAR     52  49  89 CALM      30.15F

$$

LAZ014-016-300600-
NORTHEAST LOUISIANA

CITY           SKY/WX    TMP DP  RH WIND       PRES   REMARKS
MONROE         CLEAR     50  46  86 NE3       30.16S
TALLULAH       CLEAR     51  45  79 N5        30.14S

$$




USA.gov is the U.S. government's official web portal to all federal, state and local government web resources and services.